User: anonymous   Login
Location: Unspecified
(0.0000°N, 0.0000°E)
Time: 03:00:48
(UTC+00:00)
Language:

WGS F4 (USA 233) - Orbit

View from above orbital plane
View from above orbital plane
View from above satellite
View from above satellite

Ground track
Ground track

The orbit data is extracted from the following two-line orbital elements,

1 38070U 12003A   18091.19902154 0.00000000  00000-0  00000-0 0    07
2 38070   0.0160 349.4898 0005459 188.6004 171.4030  1.00270000    08
Epoch (UTC): 01 April 2018 04:46:35
Eccentricity: 0.0005459
inclination: 0.0160°
perigee height: 35764 km
apogee height: 35810 km
right ascension of ascending node: 349.4898°
argument of perigee: 188.6004°
revolutions per day: 1.00270000
mean anomaly at epoch: 171.4030°
orbit number at epoch: 0

The dashed part of the orbit path shows where the satellite is in the earth's shadow,  

DLR